Flag for Netherlands

Past Weather in Groningen, Netherlands — Yesterday and Last 2 Weeks

Now
41 °F

Passing clouds.


Feels Like: 38 °F
Forecast: 61 / 56 °F
Wind: 5 mph from Northeast

Location: Groningen Eelde Airport
Current Time: Sep 26, 2020 at 5:22:22 am
Latest Report: Sep 26, 2020 at 4:55 am
Visibility: 6 mi
Pressure29.42 "Hg
Humidity: 100%
Dew Point: 41 °F
Location of GroningenLocation

Past Weather in Groningen — Graph

°F

Groningen Temperature Yesterday

Maximum temperature yesterday: 57 °F (at 3:55 pm)
Minimum temperature yesterday: 46 °F (at 10:55 pm)
Average temperature yesterday: 53 °F

High & Low Weather Summary for the Past Weeks

 TemperatureHumidityPressure
High86 °F (Sep 15, 4:25 pm)100% (Sep 11, 9:55 pm)30.45 "Hg (Sep 11, 9:55 pm)
Low39 °F (Sep 22, 6:55 am)36% (Sep 19, 4:25 pm)29.33 "Hg (Sep 25, 4:55 am)
Average58 °F79%29.99 "Hg
* Reported Sep 11 3:25 am — Sep 26 3:55 am, Groningen. Weather by CustomWeather, © 2020

Note: Actual official high and low records may vary slightly from our data, if they occured in-between our weather recording intervals... More about our weather records

Groningen Weather History for the Previous 24 Hours

Scroll right to see more
 ConditionsComfort  
Time TempWeatherWind HumidityBarometerVisibility
3:55 am
Sat, Sep 26
43 °FQuite cool.3 mph100%29.39 "Hg6 mi
3:25 am45 °FQuite cool.5 mph93%29.39 "HgN/A
2:55 am45 °FMostly cloudy.6 mph93%29.39 "HgN/A
2:25 am45 °FMostly cloudy.6 mph93%29.39 "HgN/A
1:55 am45 °FPassing clouds.7 mph93%29.39 "HgN/A
1:25 am45 °FPassing clouds.6 mph93%29.36 "HgN/A
12:55 am46 °FCool.5 mph87%29.36 "HgN/A
12:25 am48 °FOvercast.5 mph87%29.39 "HgN/A
11:55 pm
Fri, Sep 25
48 °FCool.3 mph87%29.36 "HgN/A
11:25 pm48 °FOvercast.3 mph87%29.39 "HgN/A
10:55 pm46 °FCool.3 mph87%29.36 "HgN/A
10:25 pm48 °FPassing clouds.5 mph82%29.36 "HgN/A
9:55 pm50 °FCool.6 mph82%29.36 "HgN/A
9:25 pm50 °FCool.6 mph82%29.36 "HgN/A
8:55 pm52 °FCool.5 mph77%29.36 "HgN/A
8:25 pm52 °FClear.5 mph77%29.33 "HgN/A
7:55 pm52 °FPassing clouds.6 mph77%29.33 "HgN/A
7:25 pm54 °FClear.8 mph72%29.33 "HgN/A
6:55 pm55 °FPartly sunny.12 mph67%29.33 "HgN/A
6:25 pm57 °FMostly cloudy.9 mph67%29.33 "HgN/A
5:55 pm57 °FPassing clouds.12 mph63%29.33 "HgN/A
5:25 pm57 °FClear.15 mph63%29.33 "HgN/A
4:55 pm57 °FPassing clouds.15 mph63%29.36 "HgN/A
4:25 pm57 °FBroken clouds.14 mph63%29.36 "HgN/A
3:55 pm57 °FScattered clouds.15 mph67%29.33 "HgN/A
2:55 pm55 °FPartly sunny.13 mph72%29.36 "HgN/A
2:25 pm55 °FOvercast.14 mph67%29.36 "HgN/A
1:55 pm55 °FMostly cloudy.15 mph67%29.36 "HgN/A
1:25 pm54 °FMore clouds than sun.16 mph72%29.36 "HgN/A
12:55 pm55 °FMostly cloudy.16 mph67%29.36 "HgN/A
12:25 pm54 °FPartly sunny.14 mph67%29.36 "HgN/A
11:55 am54 °FBroken clouds.16 mph72%29.36 "HgN/A
11:25 am55 °FPassing clouds.16 mph72%29.36 "HgN/A
10:55 am54 °FPassing clouds.15 mph72%29.36 "HgN/A
10:25 am52 °FScattered clouds.16 mph77%29.36 "HgN/A
9:55 am52 °FCool.16 mph82%29.36 "HgN/A
9:25 am52 °FPassing clouds.13 mph82%29.36 "HgN/A
8:55 am50 °FPassing clouds.10 mph88%29.36 "HgN/A
8:25 am50 °FPassing clouds.14 mph94%29.36 "HgN/A
7:55 am52 °FBroken clouds.12 mph94%29.33 "HgN/A
7:25 am52 °FClear.9 mph94%29.33 "HgN/A
6:55 am54 °FPassing clouds.7 mph94%29.33 "HgN/A
6:25 am54 °FPassing clouds.8 mph94%29.33 "HgN/A
5:55 am54 °FPartly cloudy.8 mph94%29.33 "HgN/A
5:25 am54 °FSprinkles. Passing clouds.8 mph94%29.33 "HgN/A
Weather by CustomWeather, © 2020

See weather overview